Bangkok, Thailand

3:17 PM ICT on February 25, 2017 (GMT +0700)
Bangkok International

Weather History for VTBD - December, 2012

Change the Weather History Date:

Sunday, December 30, 2012

  Actual Average Record
Temperature  
Mean Temperature 87 °F -  
Max Temperature 96 °F 88 °F 96 °F (2012)
Min Temperature 78 °F 72 °F 64 °F (2013)
Cooling Degree Days 22    
Growing Degree Days 37 (Base 50)    
Moisture  
Dew Point 71 °F    
Average Humidity 59    
Maximum Humidity 74    
Minimum Humidity 35    
Precipitation  
Precipitation 0.00 in 0.01 in - ()
Sea Level Pressure  
Sea Level Pressure 29.78 in    
Wind  
Wind Speed 4 mph ()    
Max Wind Speed 8 mph    
Max Gust Speed -    
Visibility 5.9 miles    
Events      
Averages and records for this station are not official NWS values.
T = Trace of Precipitation, MM = Missing Value Source: Averaged Metar Reports

Daily Weather History Graph

Daily Weather History Graph

Search for Another Location

Airport or City:

Trip Planner

Search our weather history database for the weather conditions in past years. The results will help you decide how hot, cold, wet, or windy it might be!

Date:

Astronomy

Dec. 30, 2012 Rise Set
Actual Time 6:40 AM ICT 5:59 PM ICT
Civil Twilight 6:17 AM ICT 6:22 PM ICT
Nautical Twilight 5:50 AM ICT 6:49 PM ICT
Astronomical Twilight 5:24 AM ICT 7:15 PM ICT
Moon 7:39 PM ICT (12/30) 7:48 AM ICT (12/30)
Length of Visible Light 12h 05m
Length of Day
11h 19m
Full, 97% of the Moon is Illuminated
Dec 30
Full
Jan 5
Last Quarter
Jan 12
New
Jan 19
First Quarter
Jan 27
Full

Hourly Weather History & Observations

Time (ICT) Temp. Heat Index Dew Point Humidity Pressure Visibility Wind Dir Wind Speed Gust Speed Precip Events Conditions
12:00 AM 84.2 °F 89.6 °F 71.6 °F 66% 29.77 in - North 3.5 mph - N/A   Clear
12:30 AM 84.2 °F 89.6 °F 71.6 °F 66% 29.80 in - North 5.8 mph - N/A   Clear
1:00 AM 84 °F - 71 °F 58% 29.79 in 6 mi NNE 4.6 mph - -   Scattered Clouds
1:00 AM 84.2 °F 89.6 °F 71.6 °F 66% 29.77 in - NNE 4.6 mph - N/A   Clear
1:30 AM 82.4 °F 87.2 °F 71.6 °F 70% 29.77 in - North 8.1 mph - N/A   Clear
2:00 AM 82.4 °F 87.2 °F 71.6 °F 70% 29.77 in - NNW 3.5 mph - N/A   Clear
2:30 AM 82.4 °F 87.2 °F 71.6 °F 70% 29.74 in 5.6 mi North 4.6 mph - N/A   Unknown
3:00 AM 80.6 °F 84.6 °F 71.6 °F 74% 29.74 in 5.0 mi North 3.5 mph - N/A   Unknown
3:30 AM 80.6 °F 83.2 °F 68.0 °F 65% 29.74 in 5.0 mi NNE 4.6 mph - N/A   Scattered Clouds
4:00 AM 80.6 °F 83.9 °F 69.8 °F 70% 29.77 in 5.0 mi North 3.5 mph - N/A   Mostly Cloudy
4:30 AM 80.6 °F 83.9 °F 69.8 °F 70% 29.77 in 5.0 mi NE 5.8 mph - N/A   Mostly Cloudy
5:00 AM 80.6 °F 83.9 °F 69.8 °F 70% 29.77 in 5.0 mi NE 5.8 mph - N/A   Mostly Cloudy
5:30 AM 78.8 °F - 69.8 °F 74% 29.77 in 5.0 mi North 4.6 mph - N/A   Mostly Cloudy
6:00 AM 80.6 °F 83.9 °F 69.8 °F 70% 29.77 in 5.0 mi NNE 5.8 mph - N/A   Mostly Cloudy
6:30 AM 80.6 °F 83.9 °F 69.8 °F 70% 29.77 in 5.0 mi North 5.8 mph - N/A   Mostly Cloudy
7:00 AM 79 °F - 71 °F 69% 29.80 in 5 mi North 3.5 mph - -   Mist
7:00 AM 78.8 °F - 69.8 °F 74% 29.80 in 5.0 mi North 3.5 mph - N/A   Mostly Cloudy
7:30 AM 78.8 °F - 69.8 °F 74% 29.80 in 5.0 mi North 3.5 mph - N/A   Mostly Cloudy
8:00 AM 80.6 °F 84.6 °F 71.6 °F 74% 29.80 in 5.0 mi North 2.3 mph - N/A   Scattered Clouds
8:30 AM 82.4 °F 87.2 °F 71.6 °F 70% 29.80 in 5.6 mi NNE 3.5 mph - N/A   Scattered Clouds
9:00 AM 84.2 °F 89.6 °F 71.6 °F 66% 29.83 in 6.2 mi North 3.5 mph - N/A   Scattered Clouds
9:30 AM 87.8 °F 93.8 °F 71.6 °F 58% 29.83 in 6.2 mi North 3.5 mph - N/A   Scattered Clouds
10:00 AM 87.8 °F 92.6 °F 69.8 °F 55% 29.83 in 6.2 mi ENE 4.6 mph - N/A   Mostly Cloudy
10:30 AM 87.8 °F 92.6 °F 69.8 °F 55% 29.83 in 6.2 mi NNE 3.5 mph - N/A   Mostly Cloudy
11:00 AM 87.8 °F 92.6 °F 69.8 °F 55% 29.83 in 6.2 mi ENE 3.5 mph - N/A   Mostly Cloudy
11:30 AM 89.6 °F 94.7 °F 69.8 °F 52% 29.83 in 6.2 mi NNW 4.6 mph - N/A   Mostly Cloudy
12:00 PM 91.4 °F 96.8 °F 69.8 °F 49% 29.80 in 6.2 mi East 5.8 mph - N/A   Mostly Cloudy
12:30 PM 91.4 °F 96.8 °F 69.8 °F 49% 29.80 in 6.2 mi East 4.6 mph - N/A   Mostly Cloudy
1:00 PM 94 °F - 69 °F 35% 29.80 in 6 mi East 4.6 mph - -   Scattered Clouds
1:00 PM 95.0 °F 101.3 °F 69.8 °F 44% 29.77 in 6.2 mi East 4.6 mph - N/A   Mostly Cloudy
1:30 PM 95.0 °F 101.3 °F 69.8 °F 44% 29.77 in 6.2 mi East 4.6 mph - N/A   Mostly Cloudy
2:00 PM 95.0 °F 99.5 °F 68.0 °F 41% 29.74 in 6.2 mi SE 3.5 mph - N/A   Scattered Clouds
2:30 PM 96.8 °F 103.1 °F 69.8 °F 41% 29.74 in 6.2 mi NE 8.1 mph - N/A   Scattered Clouds
3:00 PM 96.8 °F 105.1 °F 71.6 °F 44% 29.74 in 6.2 mi NE 6.9 mph - N/A   Scattered Clouds
3:30 PM 95.0 °F 103.2 °F 71.6 °F 47% 29.74 in 6.2 mi ENE 3.5 mph - N/A   Scattered Clouds
4:00 PM 95.0 °F 103.2 °F 71.6 °F 47% 29.74 in 6.2 mi NNE 3.5 mph - N/A   Scattered Clouds
4:30 PM 93.2 °F 100.5 °F 71.6 °F 49% 29.74 in 6.2 mi ESE 5.8 mph - N/A   Scattered Clouds
5:00 PM 93.2 °F 100.5 °F 71.6 °F 49% 29.74 in 6.2 mi SSE 5.8 mph - N/A   Scattered Clouds
5:30 PM 93.2 °F 100.5 °F 71.6 °F 49% 29.74 in 6.2 mi ESE 4.6 mph - N/A   Scattered Clouds
6:00 PM 91.4 °F 98.4 °F 71.6 °F 52% 29.74 in 6.2 mi East 4.6 mph - N/A   Scattered Clouds
6:30 PM 89.6 °F 96.2 °F 71.6 °F 55% 29.74 in 6.2 mi East 3.5 mph - N/A   Scattered Clouds
7:00 PM 90 °F - 72 °F 46% 29.77 in 6 mi NE 3.5 mph - -   Scattered Clouds
7:00 PM 89.6 °F 96.2 °F 71.6 °F 55% 29.77 in 6.2 mi NE 3.5 mph - N/A   Scattered Clouds
7:30 PM 89.6 °F 96.2 °F 71.6 °F 55% 29.77 in 6.2 mi ENE 3.5 mph - N/A   Scattered Clouds
8:00 PM 89.6 °F 98.2 °F 73.4 °F 59% 29.80 in 6.2 mi East 3.5 mph - N/A   Scattered Clouds
8:30 PM 87.8 °F 95.6 °F 73.4 °F 62% 29.80 in 6.2 mi North 4.6 mph - N/A   Scattered Clouds
9:00 PM 87.8 °F 95.6 °F 73.4 °F 62% 29.80 in 6.2 mi ENE 3.5 mph - N/A   Mostly Cloudy
9:30 PM 87.8 °F 95.6 °F 73.4 °F 62% 29.80 in 6.2 mi ESE 3.5 mph - N/A   Mostly Cloudy
10:00 PM 87.8 °F 95.6 °F 73.4 °F 62% 29.83 in 6.2 mi East 3.5 mph - N/A   Mostly Cloudy
10:30 PM 87.8 °F 95.6 °F 73.4 °F 62% 29.83 in 6.2 mi East 4.6 mph - N/A   Mostly Cloudy
11:00 PM 86.0 °F 93.4 °F 73.4 °F 66% 29.83 in 6.2 mi East 6.9 mph - N/A   Mostly Cloudy
11:30 PM 86.0 °F 93.4 °F 73.4 °F 66% 29.83 in 6.2 mi East 6.9 mph - N/A   Mostly Cloudy